Weather History for Springfield, VT

Change the Weather History Date:

Monday, July 8, 2013

  Actual Average Record
Temperature  
Mean Temperature 76 °F 69 °F  
Max Temperature 83 °F 81 °F 90 °F (2003)
Min Temperature 69 °F 57 °F 42 °F (2000)
Cooling Degree Days 11 5  
Month to date cooling degree days 93 33  
Year to date cooling degree days 206 109  
Since 1 June cooling degree days 182 97  
Growing Degree Days 26 (Base 50)    
Moisture  
Dew Point 69 °F    
Average Humidity 79    
Maximum Humidity 100    
Minimum Humidity 58    
Precipitation  
Precipitation 0.10 in 0.14 in 1.12 in (2004)
Month to date precipitation 2.28 1.02  
Year to date precipitation 20.39 21.18  
Sea Level Pressure  
Sea Level Pressure 29.99 in    
Wind  
Wind Speed 2 mph (ENE)    
Max Wind Speed 14 mph    
Max Gust Speed 18 mph    
Visibility 8 miles    
Events Rain    
T = Trace of Precipitation, MM = Missing Value Source: NWS Daily Summary

Daily Weather History Graph

Daily Weather History Graph

Search for Another Location

Airport:

Trip Planner

Search our weather history database for the weather conditions in past years. The results will help you decide how hot, cold, wet, or windy it might be!

Date:

Astronomy

Jul. 08, 2013 Rise Set
Actual Time 5:18 AM EDT 8:32 PM EDT
Civil Twilight 4:43 AM EDT 9:06 PM EDT
Nautical Twilight 3:57 AM EDT 9:52 PM EDT
Astronomical Twilight 3:02 AM EDT 10:46 PM EDT
Moon 5:47 AM EDT (7/8) 8:29 PM EDT (7/8)
Length of Visible Light 16h 23m
Length of Day
15h 13m
New Moon, 0% of the Moon is Illuminated
Jul 8
New Moon
Jul 15
First Quarter
Jul 22
Full
Jul 29
Last Quarter
Aug 6
New

Hourly Weather History & Observations

Time (EDT) Temp. Heat Index Dew Point Humidity Pressure Visibility Wind Dir Wind Speed Gust Speed Precip Events Conditions
12:16 AM 71.6 °F - 69.8 °F 94% 29.96 in 10.0 mi Calm Calm - N/A   Scattered Clouds
12:54 AM 71.1 °F - 70.0 °F 96% 29.96 in 10.0 mi Calm Calm - 0.00 in Rain Light Rain
1:54 AM 70.0 °F - 70.0 °F 100% 29.95 in 8.0 mi Calm Calm - 0.00 in   Mostly Cloudy
2:01 AM 69.8 °F - 69.8 °F 100% 29.96 in 9.0 mi Calm Calm - N/A   Scattered Clouds
2:26 AM 71.6 °F - 69.8 °F 94% 29.96 in 9.0 mi Calm Calm - N/A   Mostly Cloudy
2:54 AM 71.1 °F - 69.1 °F 93% 29.94 in 10.0 mi Calm Calm - N/A   Overcast
3:54 AM 70.0 °F - 69.1 °F 97% 29.95 in 2.0 mi Calm Calm - N/A   Overcast
4:08 AM 69.8 °F - 69.8 °F 100% 29.96 in 4.0 mi Calm Calm - N/A   Overcast
4:54 AM 70.0 °F - 69.1 °F 97% 29.95 in 8.0 mi Calm Calm - 0.01 in   Overcast
5:24 AM 69.8 °F - 69.8 °F 100% 29.97 in 1.5 mi Calm Calm - N/A   Overcast
5:43 AM 69.8 °F - 69.8 °F 100% 29.97 in 2.5 mi Calm Calm - N/A   Overcast
5:54 AM 69.1 °F - 69.1 °F 100% 29.96 in 3.0 mi Calm Calm - N/A   Overcast
6:11 AM 69.8 °F - 69.8 °F 100% 29.97 in 8.0 mi Calm Calm - N/A   Overcast
6:49 AM 69.8 °F - 69.8 °F 100% 29.97 in 10.0 mi Calm Calm - N/A   Overcast
6:54 AM 70.0 °F - 69.1 °F 97% 29.97 in 10.0 mi Calm Calm - N/A   Overcast
7:54 AM 71.1 °F - 69.1 °F 93% 29.99 in 10.0 mi Calm Calm - N/A   Overcast
8:02 AM 71.6 °F - 69.8 °F 94% 29.99 in 10.0 mi Calm Calm - N/A   Overcast
8:54 AM 73.0 °F - 70.0 °F 90% 29.98 in 10.0 mi Calm Calm - N/A   Overcast
9:23 AM 75.2 °F - 69.8 °F 83% 29.99 in 10.0 mi Calm Calm - N/A   Mostly Cloudy
9:47 AM 75.2 °F - 69.8 °F 83% 29.99 in 10.0 mi Calm Calm - N/A   Mostly Cloudy
9:54 AM 77.0 °F - 70.0 °F 79% 29.99 in 10.0 mi Calm Calm - N/A   Scattered Clouds
10:54 AM 80.1 °F 83.2 °F 70.0 °F 71% 29.98 in 10.0 mi Calm Calm - N/A   Overcast
11:54 AM 77.0 °F - 69.1 °F 76% 29.99 in 10.0 mi SSE 4.6 mph - 0.00 in Rain Light Rain
12:04 PM 77.0 °F - 69.8 °F 78% 29.99 in 10.0 mi SE 4.6 mph - 0.00 in Rain Light Rain
12:54 PM 79.0 °F - 66.9 °F 66% 29.99 in 10.0 mi WSW 8.1 mph - 0.00 in   Overcast
1:54 PM 81.0 °F 83.3 °F 66.9 °F 62% 29.99 in 10.0 mi West 10.4 mph - N/A   Scattered Clouds
2:54 PM 80.1 °F 82.3 °F 66.9 °F 64% 29.98 in 10.0 mi Calm Calm - N/A   Clear
3:54 PM 82.0 °F 84.5 °F 66.9 °F 60% 29.99 in 10.0 mi West 10.4 mph - N/A   Overcast
4:54 PM 79.0 °F - 66.9 °F 66% 29.99 in 10.0 mi NNW 4.6 mph - N/A   Overcast
5:54 PM 79.0 °F - 66.9 °F 66% 29.99 in 10.0 mi Calm Calm - N/A   Overcast
6:54 PM 75.9 °F - 69.1 °F 79% 30.00 in 10.0 mi ENE 6.9 mph - N/A   Overcast
7:54 PM 73.9 °F - 68.0 °F 82% 30.02 in 10.0 mi East 3.5 mph - N/A   Overcast
8:51 PM 73.4 °F - 69.8 °F 88% 30.04 in 2.5 mi Calm Calm - 0.08 in Rain Rain
8:54 PM 72.0 °F - 69.1 °F 91% 30.04 in 4.0 mi Calm Calm - 0.09 in Rain Light Rain
9:54 PM 72.0 °F - 70.0 °F 93% 30.06 in 10.0 mi Calm Calm - 0.00 in Rain Light Rain
10:35 PM 71.6 °F - 69.8 °F 94% 30.06 in 7.0 mi NE 3.5 mph - N/A   Mostly Cloudy
10:54 PM 71.1 °F - 70.0 °F 96% 30.06 in 8.0 mi Calm Calm - N/A   Mostly Cloudy
11:03 PM 71.6 °F - 69.8 °F 94% 30.06 in 9.0 mi Calm Calm - N/A   Mostly Cloudy
11:54 PM 71.1 °F - 70.0 °F 96% 30.06 in 10.0 mi Calm Calm - N/A   Overcast